Wetbulb
28.41 27.94 28.25 29.31 30.20 29.72 29.83 27.74 26.11 22.07 23.52 27.30 29.95 32.44 30.59 30.92 34.31 36.17 37.30 37.61 37.37 36.90 37.03 38.08 38.74 39.59 39.99 40.69 41.79 43.00 44.59 46.02 48.11 50.08 52.72 56.94 60.92 60.35
27.48 26.58 26.50 26.86 26.98 27.78 27.75 27.20 26.08 24.31 22.18 28.58 30.30 28.71 27.05 28.04 30.97 31.52 36.16 36.08 37.00 36.04 35.54 36.07 36.85 37.70 38.07 38.69 39.29 40.59 41.77 42.72 43.91 45.05 47.77 50.33 55.80 60.37
25.97 25.77 24.96 24.70 24.02 25.15 25.25 24.78 23.65 23.94 24.17 25.87 28.05 27.11 23.61 23.12 25.05 28.14 32.30 35.79 33.38 35.29 35.50 34.82 34.78 35.36 35.95 36.66 37.48 38.23 39.29 40.05 40.95 41.82 43.43 45.92 49.83 59.40
24.87 24.83 23.47 24.21 21.99 23.02 22.56 21.94 21.78 23.85 23.73 22.80 24.09 22.68 22.08 21.91 23.34 25.04 29.43 33.24 33.21 32.95 35.02 35.40 34.47 34.30 34.22 34.63 35.45 36.37 37.04 37.83 38.38 39.16 39.54 40.97 43.56 47.74
23.12 22.11 20.67 20.14 17.74 16.21 19.40 19.81 20.47 23.31 22.50 22.55 20.00 21.18 20.95 20.68 21.02 23.34 26.02 27.32 31.69 31.11 32.36 32.86 34.82 33.62 33.35 33.36 34.13 34.76 35.58 36.69 37.19 37.21 37.50 37.30 38.90 41.60
26.69 25.00 24.04 22.60 16.87 15.64 15.80 9.12 16.26 18.80 20.37 19.01 18.39 18.10 18.74 19.58 19.87 19.44 20.72 23.57 25.05 25.17 26.81 30.94 31.74 32.55 32.48 32.80 32.61 33.57 33.97 35.07 36.32 36.66 36.68 36.50 36.15 37.69
26.87 26.27 25.20 26.09 26.98 25.35 20.16 12.36 11.21 12.62 16.65 17.17 16.44 16.89 17.07 16.94 15.61 18.53 18.44 20.16 25.36 19.30 19.58 27.91 26.17 28.48 28.48 30.07 31.80 31.99 32.59 33.84 34.71 35.86 36.28 35.81 35.88 35.72
18.55 18.90 21.69 22.44 22.78 25.04 26.62 26.32 19.20 6.95 8.70 12.65 8.39 9.09 11.59 12.68 16.94 17.25 16.23 16.40 18.24 19.00 15.29 19.35 24.56 23.86 27.58 27.39 30.49 30.71 30.94 31.82 33.04 34.75 35.19 34.92 34.91 34.92
18.41 16.04 17.13 19.31 19.43 17.48 23.14 23.93 22.73 25.07 18.30 8.76 6.23 6.88 7.98 10.52 7.38 14.97 14.90 13.99 12.45 14.05 14.76 13.15 19.66 19.74 27.25 26.57 28.85 29.98 29.16 30.44 31.36 32.74 33.81 33.58 33.56 33.72
22.57 21.69 20.12 19.68 21.41 20.83 19.48 16.96 15.88 14.55 19.30 17.81 12.77 14.09 11.85 12.11 7.37 6.30 7.45 13.72 15.31 10.62 15.30 5.52 10.28 17.39 22.27 17.66 27.88 28.48 28.11 28.49 29.85 30.64 32.32 32.86 31.94 31.94
22.03 21.25 20.30 19.51 23.21 23.11 19.64 18.90 18.49 16.66 23.90 27.05 25.94 25.07 24.30 24.59 22.90 16.64 15.09 11.79 6.06 3.55 13.43 2.80 8.08 15.61 13.74 15.15 21.34 25.46 26.64 26.95 27.89 29.10 30.59 32.09 31.47 30.67
21.45 21.77 22.39 20.84 22.13 21.96 18.38 18.14 10.32 10.83 9.39 13.92 13.34 16.80 17.89 18.17 21.63 13.99 16.45 15.74 6.37 4.01 7.97 4.61 2.97 12.39 9.23 10.32 15.24 18.64 20.16 24.61 25.17 26.37 28.25 30.61 31.25 27.88
20.71 17.71 18.00 21.32 21.69 21.99 21.53 13.63 13.56 10.79 10.86 10.01 10.34 10.69 8.94 12.87 14.86 14.94 11.70 15.67 9.49 2.34 10.76 6.08 1.31 9.22 1.52 6.60 12.76 17.11 17.56 19.35 18.85 20.70 25.18 28.16 29.54 29.36
16.23 13.44 11.10 20.67 21.00 21.43 17.38 22.69 22.09 11.97 10.50 9.42 7.36 8.38 5.55 6.82 11.76 12.42 13.95 12.05 10.46 9.49 10.62 10.94 5.98 7.07 2.08 0.92 6.80 15.57 17.01 17.57 18.29 18.25 21.12 24.24 25.86 27.58
14.43 16.28 19.77 20.36 21.79 19.15 22.32 21.37 12.05 6.75 1.73 2.08 -0.57 0.47 2.15 6.01 10.73 10.61 14.62 15.78 12.12 10.77 12.93 8.94 7.16 7.22 4.42 1.74 4.08 10.75 13.11 15.88 17.89 17.68 19.51 20.19 20.89 22.77
17.09 14.62 12.64 15.89 11.95 10.21 14.34 13.35 7.75 3.71 2.49 0.31 -0.28 -1.16 7.10 5.65 7.12 2.40 4.24 11.33 5.15 8.39 15.65 14.40 15.22 13.23 9.41 10.06 9.09 8.63 14.09 11.88 16.07 17.61 18.47 19.81 21.44 22.34
7.26 10.22 8.62 7.65 7.07 5.89 6.20 6.47 5.70 5.16 5.92 0.66 0.71 3.34 6.81 5.60 8.68 7.32 9.94 7.97 4.58 6.55 9.05 11.60 15.89 16.33 15.33 11.86 9.21 13.69 13.86 13.50 16.02 16.73 17.68 16.58 18.85 21.40
12.78 7.33 3.83 1.21 2.97 3.25 2.98 3.71 4.81 7.19 7.56 10.79 7.07 9.44 9.96 11.29 11.71 13.52 13.03 9.72 8.65 10.55 10.76 10.65 12.39 12.24 13.97 15.49 19.20 13.77 15.08 13.66 15.57 17.16 17.97 14.76 15.18 19.79
9.15 5.83 2.39 2.12 3.95 9.47 9.73 9.11 5.93 7.67 11.65 11.47 9.28 9.11 11.99 13.92 12.34 12.30 11.77 10.81 10.29 10.40 10.92 12.29 11.82 10.45 6.79 1.98 11.62 20.21 14.20 13.74 14.91 14.38 17.24 15.95 14.63 18.11
13.86 9.81 6.35 7.63 11.32 12.04 11.75 10.45 9.10 7.53 8.54 11.91 7.86 5.20 3.52 12.09 9.82 10.11 10.10 6.96 8.57 9.13 9.10 10.58 10.37 10.42 8.62 0.07 0.34 9.29 19.61 13.01 13.29 12.85 15.50 17.29 17.78 21.42
12.93 12.79 8.76 10.04 10.02 11.01 2.76 1.41 -1.55 -0.48 -0.39 0.63 2.06 2.24 -5.64 5.10 5.71 6.32 6.13 3.18 5.12 7.65 6.09 7.20 10.08 13.30 14.30 13.16 3.20 6.36 12.83 17.78 17.14 14.14 14.50 14.18 12.57 14.15
10.67 11.01 10.55 9.42 5.65 5.45 -1.21 -3.73 -0.90 2.47 0.98 1.35 -4.88 -5.82 -5.68 2.10 2.89 3.68 1.51 2.55 7.02 6.10 6.53 8.67 10.91 11.48 10.82 9.30 5.85 5.33 8.41 9.97 15.28 17.16 17.59 17.72 12.48 9.06
5.47 9.26 7.37 5.29 4.35 2.88 6.22 1.30 1.08 -5.58 0.34 -0.80 1.32 0.40 -6.99 5.53 3.83 5.35 3.16 5.68 6.67 5.69 5.93 5.38 7.07 8.50 8.16 8.29 5.93 7.23 6.44 6.26 8.62 8.84 10.15 17.04 17.38 18.01
MSLP
1024.82 1024.63 1024.59 1024.51 1024.44 1024.24 1023.94 1023.88 1023.78 1023.47 1022.47 1021.59 1021.28 1021.05 1020.89 1020.35 1019.68 1018.77 1018.06 1017.67 1017.14 1016.62 1016.08 1015.44 1014.67 1013.85 1012.92 1011.95 1010.77 1009.56 1008.65 1007.86 1006.72 1006.00 1005.47 1004.83 1004.31 1004.23
1025.45 1025.17 1025.35 1025.38 1025.29 1024.95 1024.67 1024.46 1024.34 1024.08 1023.44 1022.57 1022.14 1022.18 1021.88 1021.19 1020.32 1019.46 1018.52 1017.93 1017.34 1016.90 1016.45 1015.86 1015.13 1014.38 1013.53 1012.71 1011.64 1010.38 1009.28 1008.27 1007.65 1006.60 1005.45 1004.86 1003.77 1003.37
1025.91 1025.85 1026.10 1026.25 1026.14 1025.79 1025.51 1025.19 1024.91 1024.54 1024.00 1023.20 1023.04 1022.90 1022.64 1022.08 1021.02 1019.96 1018.85 1017.85 1017.63 1017.17 1016.65 1016.19 1015.62 1014.94 1014.24 1013.41 1012.31 1011.32 1010.35 1009.39 1008.09 1007.04 1006.21 1005.21 1004.11 1002.55
1026.44 1026.36 1026.63 1026.85 1026.81 1026.71 1026.35 1025.95 1025.63 1025.06 1024.83 1024.20 1023.80 1023.67 1023.41 1022.94 1022.01 1020.73 1019.45 1018.55 1017.96 1017.62 1017.02 1016.56 1016.22 1015.68 1015.02 1014.21 1013.23 1012.20 1011.21 1010.18 1009.29 1008.29 1006.89 1005.88 1004.35 1003.07
1026.75 1026.67 1026.81 1027.08 1027.19 1027.15 1026.94 1026.75 1026.43 1025.96 1025.61 1025.25 1025.00 1024.66 1024.15 1023.41 1022.19 1021.25 1020.24 1019.52 1018.65 1018.27 1017.61 1017.15 1016.60 1016.26 1015.59 1014.91 1014.02 1013.14 1012.03 1010.87 1009.94 1008.90 1008.06 1007.12 1005.88 1004.37
1026.81 1026.81 1026.72 1026.89 1027.01 1027.05 1027.07 1027.14 1027.06 1026.76 1026.43 1026.16 1025.83 1025.38 1024.77 1023.99 1023.26 1022.32 1020.85 1020.22 1019.81 1019.03 1018.39 1017.72 1017.22 1016.81 1016.14 1015.24 1014.54 1013.68 1012.82 1011.68 1010.57 1009.67 1008.86 1007.76 1007.13 1005.91
1026.89 1026.91 1026.78 1026.76 1026.82 1026.75 1026.83 1027.05 1027.07 1027.22 1026.95 1026.69 1026.32 1025.88 1025.20 1024.43 1023.80 1023.32 1022.49 1021.21 1020.36 1020.43 1019.42 1018.27 1017.80 1017.25 1016.72 1015.88 1014.99 1014.25 1013.40 1012.50 1011.48 1010.51 1009.64 1008.98 1007.99 1007.15
1027.27 1027.51 1027.45 1027.23 1027.25 1027.01 1026.50 1026.60 1027.04 1027.08 1027.11 1026.99 1026.81 1026.55 1025.88 1025.43 1024.75 1024.03 1023.19 1022.18 1021.36 1021.37 1020.67 1019.24 1018.57 1018.00 1017.37 1016.65 1015.91 1015.11 1014.40 1013.64 1012.69 1011.52 1010.69 1009.91 1009.11 1007.60
1027.32 1027.63 1027.77 1027.65 1027.50 1027.68 1027.25 1027.13 1027.05 1026.59 1026.98 1026.95 1027.00 1026.61 1026.21 1025.92 1025.55 1024.72 1023.85 1023.33 1023.03 1022.75 1021.55 1020.42 1019.38 1018.70 1018.00 1017.50 1016.60 1015.72 1015.09 1014.20 1013.26 1012.24 1011.32 1010.57 1009.89 1008.84
1027.24 1027.56 1027.79 1027.73 1027.53 1027.68 1028.07 1028.01 1027.78 1027.45 1026.78 1026.51 1026.51 1026.45 1026.19 1025.82 1025.77 1025.33 1024.49 1023.83 1023.10 1022.96 1022.26 1022.02 1020.54 1019.80 1018.75 1018.30 1017.27 1016.63 1015.91 1014.97 1014.19 1013.45 1012.17 1011.17 1010.68 1009.98
1027.46 1027.75 1027.94 1027.67 1027.57 1027.75 1028.08 1028.04 1027.89 1027.44 1026.63 1025.86 1025.80 1025.74 1025.55 1025.09 1024.78 1024.82 1024.51 1024.15 1024.04 1023.75 1022.67 1022.75 1022.00 1020.69 1019.30 1018.91 1018.27 1017.59 1016.77 1015.84 1014.93 1014.05 1013.24 1012.31 1011.28 1010.76
1027.75 1027.88 1027.95 1027.86 1027.90 1027.90 1028.15 1028.03 1028.03 1028.12 1027.46 1026.91 1026.98 1026.38 1026.01 1025.63 1025.03 1025.01 1024.87 1024.62 1024.77 1024.52 1023.40 1023.20 1022.96 1021.88 1020.76 1019.54 1019.24 1018.59 1017.78 1016.70 1015.77 1015.04 1014.20 1013.10 1012.42 1011.79
1027.92 1028.41 1028.47 1028.04 1027.95 1027.81 1027.72 1027.71 1027.75 1028.17 1027.93 1027.60 1027.32 1027.14 1026.80 1026.19 1025.67 1025.13 1024.88 1024.69 1024.66 1024.71 1023.87 1023.37 1023.60 1022.96 1022.36 1021.49 1020.14 1019.32 1018.64 1017.64 1016.89 1016.11 1015.09 1014.07 1013.12 1012.64
1028.07 1028.48 1028.68 1028.02 1027.92 1027.81 1027.93 1027.46 1027.64 1028.17 1028.32 1028.14 1028.05 1027.92 1027.45 1026.91 1026.25 1025.62 1024.91 1024.58 1024.40 1024.39 1024.09 1023.68 1023.70 1023.43 1023.01 1022.71 1021.78 1020.09 1019.06 1018.40 1017.73 1017.04 1016.08 1015.13 1014.29 1013.55
1028.10 1028.03 1027.90 1027.94 1027.68 1027.91 1027.46 1027.71 1028.44 1028.82 1028.78 1029.18 1029.13 1028.83 1027.99 1027.45 1026.41 1026.05 1025.23 1024.71 1024.26 1024.27 1024.11 1023.79 1023.78 1023.14 1022.99 1022.89 1022.49 1021.13 1019.70 1018.86 1018.35 1017.76 1016.91 1016.12 1015.35 1014.54
1027.65 1028.06 1028.31 1028.24 1028.30 1028.49 1028.38 1028.44 1028.93 1029.28 1029.03 1029.20 1029.17 1028.56 1028.05 1027.40 1027.17 1027.32 1026.36 1025.68 1025.28 1024.81 1024.32 1023.88 1023.43 1023.20 1023.17 1022.63 1022.31 1021.60 1020.82 1020.24 1019.12 1018.28 1017.60 1016.93 1016.22 1015.57
1028.34 1028.35 1028.41 1028.53 1028.74 1028.72 1028.76 1029.05 1029.37 1029.27 1029.14 1029.05 1029.02 1028.89 1028.57 1028.07 1027.63 1027.45 1026.93 1026.40 1026.16 1025.61 1025.05 1024.53 1023.70 1023.24 1022.78 1022.46 1022.16 1021.82 1021.32 1020.53 1019.67 1018.83 1017.96 1017.33 1016.67 1016.02
1027.69 1028.41 1028.71 1029.00 1029.24 1029.39 1029.58 1029.63 1029.44 1029.37 1029.24 1029.22 1029.21 1029.05 1028.94 1028.43 1027.95 1027.59 1027.35 1027.08 1026.66 1026.12 1025.60 1024.90 1024.28 1023.67 1022.94 1022.43 1022.02 1021.88 1021.51 1020.94 1020.12 1019.29 1018.56 1017.99 1017.19 1016.38
1027.68 1028.19 1028.61 1029.06 1029.22 1029.16 1029.30 1029.57 1029.86 1029.45 1029.13 1029.33 1029.39 1029.39 1029.15 1028.57 1028.18 1028.06 1027.81 1027.60 1027.24 1026.78 1026.26 1025.65 1024.98 1024.36 1023.79 1023.52 1022.77 1022.09 1021.76 1021.31 1020.63 1019.95 1019.21 1018.68 1017.99 1017.01
1027.42 1027.93 1028.48 1028.72 1028.79 1029.12 1029.33 1029.55 1029.68 1029.56 1029.47 1029.61 1029.66 1029.65 1029.50 1029.04 1028.79 1028.67 1028.50 1028.23 1027.95 1027.51 1026.94 1026.37 1025.79 1025.17 1024.48 1024.31 1024.07 1023.31 1022.38 1021.97 1021.31 1020.64 1019.88 1019.20 1018.61 1017.53
1027.31 1027.74 1028.00 1028.37 1028.78 1029.08 1029.36 1029.64 1029.80 1029.85 1029.86 1029.94 1029.98 1029.93 1029.81 1029.52 1029.49 1029.18 1028.95 1028.88 1028.65 1028.23 1027.68 1027.12 1026.58 1025.78 1024.83 1024.43 1024.54 1023.96 1023.25 1022.69 1022.05 1021.32 1020.59 1019.64 1018.96 1017.98
1027.18 1027.65 1027.99 1028.43 1028.83 1029.17 1029.49 1029.79 1029.95 1030.07 1030.15 1030.19 1030.23 1030.20 1029.98 1029.76 1029.71 1029.61 1029.47 1029.29 1029.04 1028.79 1028.35 1027.79 1027.05 1026.32 1025.62 1025.21 1025.13 1024.62 1023.99 1023.32 1022.50 1021.81 1021.32 1020.50 1019.89 1019.08
1027.13 1027.58 1028.00 1028.42 1028.90 1029.26 1029.59 1029.90 1030.08 1030.19 1030.28 1030.41 1030.50 1030.53 1030.26 1030.14 1029.87 1029.71 1029.67 1029.51 1029.43 1029.23 1028.86 1028.40 1027.87 1027.30 1026.68 1026.16 1025.85 1025.25 1024.73 1024.12 1023.35 1022.51 1021.92 1021.18 1020.75 1020.14
Wind_Speed
7 8 6 6 6 6 5 4 3 4 3 5 7 9 10 10 15 12 8 18 21 23 23 24 26 26 28 29 29 29 28 26 25 22 18 18 22 24
6 8 8 7 7 7 6 6 4 2 2 5 7 9 11 11 15 13 11 13 16 21 25 24 26 27 28 29 30 30 30 29 27 26 25 23 22 25
6 8 9 9 6 7 6 6 6 4 5 3 6 10 11 14 14 13 12 6 7 23 19 24 26 27 28 29 29 31 30 30 30 30 28 27 25 19
8 8 9 7 8 6 6 8 7 6 4 6 6 8 10 13 11 12 11 10 7 21 18 19 23 25 26 28 29 30 30 30 29 29 31 30 28 23
6 7 4 3 3 3 5 7 6 7 6 5 6 7 6 11 12 11 11 10 9 19 16 21 17 23 25 26 28 29 30 30 29 29 29 30 29 27
6 6 6 3 3 3 3 3 5 5 5 5 5 5 7 10 7 10 12 10 7 11 13 16 18 19 24 26 28 29 30 31 31 30 28 27 28 28
6 6 8 11 14 8 2 2 3 3 3 4 5 5 7 8 11 8 8 10 1 11 8 6 8 7 10 19 21 29 29 30 31 30 29 28 28 29
5 5 6 11 11 13 7 11 6 3 3 2 3 2 5 3 9 8 7 8 5 8 8 5 9 8 7 10 27 27 28 28 30 30 29 28 27 30
6 4 5 6 10 7 11 11 11 13 3 4 0 2 3 3 3 9 9 7 2 5 7 4 8 7 5 9 28 26 29 28 28 30 30 28 27 27
7 7 7 7 8 7 5 5 5 5 6 2 2 3 3 3 1 3 3 7 1 2 10 3 5 8 5 3 27 27 28 28 27 28 29 28 26 24
7 7 6 6 11 12 6 7 7 7 10 14 15 15 15 16 14 4 7 6 4 3 7 2 5 9 3 4 10 27 25 28 27 28 28 28 27 24
6 6 9 7 10 10 3 3 4 5 4 6 5 6 8 9 14 4 5 4 2 4 5 3 4 6 6 4 5 10 10 25 25 28 27 27 27 11
6 3 2 7 7 8 7 1 2 3 5 4 4 4 4 6 5 6 3 1 1 1 5 3 3 4 1 5 5 9 9 10 10 14 23 25 25 21
5 2 2 5 2 4 3 10 10 5 4 4 4 4 3 4 5 5 7 4 2 4 4 2 2 1 2 4 4 8 9 5 9 10 10 16 21 21
3 6 6 2 1 1 5 8 6 4 3 3 3 3 3 4 6 5 8 11 3 2 2 3 0 3 1 1 4 6 9 4 10 9 9 9 9 9
4 2 2 3 2 1 3 4 3 2 2 1 1 3 4 4 5 3 3 6 3 4 5 6 8 4 3 2 1 4 6 4 9 9 8 8 8 9
2 1 1 1 2 2 3 3 3 3 4 2 3 3 4 3 4 3 3 3 2 3 4 4 8 8 4 2 4 6 6 6 8 9 8 9 8 8
2 1 1 2 2 2 2 2 2 3 2 2 3 3 3 3 4 4 5 4 4 6 7 3 6 6 5 5 14 8 6 7 8 10 8 8 9 9
2 2 3 3 2 2 3 3 2 1 1 2 2 2 4 5 4 5 6 6 5 7 7 9 9 9 6 5 5 19 9 9 9 10 8 8 8 7
2 3 3 3 2 4 4 2 1 2 2 2 2 2 3 4 2 5 5 3 5 7 7 7 9 10 8 3 3 4 21 9 8 10 9 6 8 11
2 3 3 3 3 3 3 2 2 1 1 1 1 2 3 2 2 3 3 5 5 7 7 8 9 14 8 5 6 6 7 20 17 11 10 9 11 7
4 4 4 4 3 3 2 2 2 2 2 2 1 2 2 2 2 2 3 2 4 5 6 7 10 9 7 8 8 9 8 7 15 21 20 19 11 8
4 4 3 3 3 3 3 3 3 1 2 2 3 2 2 2 2 2 2 2 4 4 6 6 7 7 8 8 9 7 12 8 10 11 10 22 22 22
Wind_Direction
42 38 28 16 16 5 18 10 349 334 314 334 350 25 7 354 354 350 358 11 24 21 19 17 19 19 19 16 13 12 10 8 356 348 339 301 248 233
46 45 31 20 17 10 15 11 17 350 339 344 357 14 9 353 351 348 342 17 6 26 24 22 21 20 19 18 16 16 14 13 8 359 351 338 304 239
50 55 45 33 21 14 11 11 6 1 335 321 20 10 4 353 345 342 345 6 5 8 18 23 22 20 20 18 18 18 17 15 14 9 5 357 348 271
65 65 57 46 31 19 18 14 4 346 351 332 6 2 2 351 338 342 342 352 359 8 2 13 21 20 19 18 18 17 17 17 16 17 12 8 3 355
84 73 71 69 44 21 31 25 7 3 4 13 356 357 351 352 346 350 347 350 359 359 2 11 20 20 19 20 19 18 16 17 17 18 19 15 13 8
100 78 58 50 94 66 54 44 22 13 9 20 9 354 354 354 351 353 350 350 3 0 352 11 9 20 19 20 19 17 17 15 17 17 18 17 17 19
83 72 57 50 37 23 109 63 64 20 9 21 18 5 5 1 4 337 346 329 85 17 335 333 1 355 10 11 17 16 16 15 14 17 18 19 19 22
97 73 50 41 23 20 44 51 80 113 353 348 306 343 326 346 357 347 343 356 359 12 334 321 1 352 10 14 16 16 15 16 14 15 18 17 17 20
93 114 62 36 22 16 52 47 24 13 172 175 54 258 339 312 330 350 347 352 347 332 356 316 353 344 350 6 20 16 13 13 15 13 16 18 14 17
88 86 78 51 31 44 32 28 3 339 327 222 181 273 240 268 142 211 269 325 323 340 10 346 321 334 314 338 21 14 11 12 14 14 13 17 15 14
99 90 82 68 48 48 35 29 5 342 348 32 42 35 26 17 17 346 5 11 346 313 357 91 309 328 301 337 14 9 5 10 9 10 10 15 17 10
102 82 85 85 60 64 30 352 8 310 350 9 357 10 11 357 2 19 346 14 316 353 298 47 324 345 337 324 1 355 352 2 3 5 8 11 21 10
126 116 72 89 73 64 27 48 48 2 352 20 5 357 346 352 342 345 2 181 54 274 297 62 316 328 33 306 320 351 351 355 359 355 355 5 12 20
125 154 144 109 98 57 29 46 38 26 23 16 16 345 341 339 328 333 340 342 223 192 286 37 302 25 325 320 329 339 350 347 0 352 350 355 2 8
141 156 156 176 35 63 30 63 47 40 32 35 1 324 279 292 335 349 356 355 355 332 346 339 187 295 94 260 294 335 347 341 358 350 349 351 347 351
140 161 229 217 251 286 317 68 63 68 90 87 6 302 332 354 349 338 8 353 10 332 347 348 6 18 323 319 338 317 349 348 340 344 345 348 350 355
126 53 33 47 49 20 25 43 51 32 25 8 33 5 351 335 337 357 356 341 3 325 333 336 1 349 345 298 357 356 343 347 345 341 344 350 351 354
100 114 113 99 126 143 102 49 30 39 10 41 21 19 354 334 0 22 16 4 356 1 358 325 355 353 354 346 17 359 357 352 346 348 350 354 351 350
117 160 140 142 176 136 101 99 96 5 31 46 47 16 4 357 20 20 11 8 10 6 6 359 359 359 354 359 314 6 8 358 351 352 354 355 347 341
196 139 146 145 133 116 106 102 80 32 36 19 44 33 2 6 5 27 15 352 15 8 6 359 358 353 351 269 322 319 10 359 359 352 356 345 336 343
160 126 129 117 116 127 123 112 141 180 114 26 48 46 357 17 359 12 15 20 27 14 4 357 349 346 344 9 10 345 3 359 7 355 359 347 360 347
132 137 124 114 110 121 146 134 94 86 87 69 62 38 358 31 22 35 24 27 21 24 1 353 351 354 356 9 359 341 0 345 356 0 9 10 8 358
132 132 131 133 138 134 107 105 104 105 103 88 59 12 16 9 347 59 38 23 31 17 4 358 355 356 358 0 354 350 0 357 356 352 356 3 5 4